IRIDIUM 33 DEB

Satellite information

Favourite Embed

Satellite Type and Status

DEBRISIN ORBIT

Key statistics

Satellite IRIDIUM 33 DEB at a glance.

Uptime

10222

Days in orbit

Revolutions

≈ 14.4

Per day

Orbit

LEO

Low Earth Orbit

Inclination

86.4

Latest

Satellite identification and parameters

Extended collection of information and parameters for IRIDIUM 33 DEB.

Object identification

Identified? True

Debris? True

Object name: IRIDIUM 33 DEB

International designator: 1997-051SW

Object number (NORAD): 35846

Object ID (CCSDS): 35846

Country: UNITED STATES OF AMERICA (US)

Current information (Y/N): Y

RCS size: SMALL

Orbital parameters

Period: 99.823 minutes

Inclination: 86.3702 deg

SMA: 7128.199 km

Apoapsis: 763.628 km

Periapsis: 736.5 km

RAAN: 100.1115 deg

Eccentricy: 0.00190288

Argument of periapsis: 130.7409 deg

Mean anomaly: 229.5447 deg

Mean motion: 14.42557251 rev/day

Mean motion (dot): 0.0000236 rev/day2

B* drag term: 0.0007043164 1/REarth

Two-line elements (TLE)

Creation date: Sept. 7, 2025, 9:49 a.m.

Reference frame: TEME

Reference center: EARTH

Epoch: Sept. 7, 2025, 12:31 a.m. UTC

TLE line 0: 0 IRIDIUM 33 DEB

TLE line 1: 1 35846U 97051SW 25250.02183811 .00002360 00000-0 70432-3 0 9996

TLE line 2: 2 35846 86.3702 100.1115 0019029 130.7409 229.5447 14.42557251699348

Live tracking on map

Real-time ground track for satellite IRIDIUM 33 DEB.

In-orbit conjunctions

A list of the most updated potential collisions computed for object IRIDIUM 33 DEB.

Target Orbit TCA Probability of collision Miss distance Type
COSMOS 2251 DEB LEO 2024-11-23 05:25:18 0.000112563 255.0 (m) DEBRIS
NOAA 16 DEB SSO 2024-08-05 19:34:34 0.0001215692 109.0 (m) DEBRIS

Associated space launch

Iridium provides global mobile telecommunications services using a constellation of 66 low earth orbit satellites in a 86.4° inclined orbit. Although 77 satellites were originally envisioned for the system and spawned the name based on the 77th element in the periodic table, the system has been scaled back. Motorola's Satellite Communications Group designed and manufactured the Iridium satellites with Lockheed Martin providing the LM-700A spacecraft buses.

IRIDIUM 33 DEB was lifted into orbit during the mission ‘Proton-K/17S40 | Iridium 27 to 33’, on board a Proton-K/17S40 space rocket.

The launch took place on Sept. 14, 1997, 1:36 a.m. from 81/23 (81L).

For more information about the launch, click the button.

Launch to space Proton-K/17S40 | Iridium 27 to 33
Proton-K/17S40 | Iridium 27 to 33

Agency: N/A

Status: Launch Successful

Launch date: Sept. 14, 1997, 1:36 a.m. UTC

Rocket: Proton-K/17S40

Launch pad: 81/23 (81L)

Location: Baikonur Cosmodrome, Republic of Kazakhstan

...

Latest news about this satellite

There are no fresh news available about this satellite. Check back as we update our databases every day.


Newsletter sign-up

Weekly statistics, charts and insights to help you stay on top of the space industry.